Location: Shenandoah County Park
(38.9356°N, 78.4524°W)
Time: 12:51:28
(UTC-05:00)

Explorer 7 - Visible Passes

Search period start: 07 February 2023 00:00
Search period end: 17 February 2023 00:00
Orbit: 480 x 660 km, 50.3° (Epoch: 06 February)

Date Brightness Start Highest point End Pass type
(mag) Time Alt. Az. Time Alt. Az. Time Alt. Az.
13 Feb 10.2 06:16:53 10° SE 06:17:16 10° SE 06:17:38 10° ESE visible
14 Feb 9.5 06:15:25 10° S 06:17:53 17° SE 06:20:25 10° E visible
15 Feb 8.7 06:15:22 10° SSW 06:18:33 27° SE 06:21:49 10° ENE visible
16 Feb 7.7 06:15:43 10° SSW 06:19:16 44° SE 06:22:55 10° ENE visible
